EW9168 Weather Reports


Display with metric or nautical units.
time (UTC)temp
F
wind
direction
speed
MPH
gust
MPH
rain 1hr
in
rain 24hr
in
rain mn
in
humidity
%
barometer
mb
20260507114022 43 0.0 0.0 0.00 0.80 0.01 99 1007.1
20260507113023 43 0.0 0.0 0.00 0.80 0.01 99 1007.2
20260507112022 43 0.0 0.0 0.00 0.80 0.01 99 1007.1
20260507111021 42 0.0 0.0 0.00 0.80 0.01 99 1007.1
20260507110018 41 0.0 0.0 0.00 0.80 0.01 99 1007.1
20260507105021 39 0.0 0.0 0.00 0.80 0.01 99 1007.0
20260507104021 38 0.0 0.0 0.00 0.80 0.01 98 1006.9
20260507103102 38 0.0 0.0 0.00 0.80 0.01 98 1006.9
20260507102022 38 0.0 0.0 0.00 0.80 0.01 98 1006.9
20260507101022 38 0.0 0.0 0.00 0.80 0.01 98 1006.7
20260507100022 38 0.0 0.0 0.00 0.80 0.01 98 1006.9
20260507095017 38 0.0 0.0 0.00 0.80 0.01 98 1007.0
20260507094021 38 0.0 0.0 0.00 0.80 0.01 98 1007.0
20260507093023 38 0.0 0.0 0.01 0.80 0.01 98 1007.0
20260507092022 38 0.0 0.0 0.01 0.80 0.01 98 1007.3
20260507091021 39 0.0 0.0 0.01 0.80 0.01 97 1007.4
20260507090022 39 0.0 0.0 0.01 0.80 0.01 97 1007.3
20260507085022 39 0.0 0.0 0.01 0.80 0.01 97 1007.2
20260507084018 40 0.0 0.0 0.01 0.80 0.01 97 1007.3
20260507083022 40 0.0 0.0 0.00 0.79 0.00 97 1007.3
20260507082022 40 0.0 0.0 0.00 0.79 0.00 97 1007.4
20260507081043 41 0.0 0.0 0.00 0.79 0.00 97 1007.5
20260507080022 41 0.0 0.0 0.00 0.79 0.00 97 1007.2
20260507075021 42 0.0 0.0 0.00 0.79 0.00 97 1007.1
20260507074022 42 0.0 0.0 0.00 0.79 0.00 97 1007.0
20260507073018 42 0.0 0.0 0.00 0.79 0.00 97 1006.8
20260507072022 43 0.0 0.0 0.00 0.79 0.00 98 1006.8
20260507071022 43 0.0 0.0 0.00 0.79 0.00 98 1006.6
20260507070042 43 0.0 0.0 0.00 0.79 0.00 98 1006.7
20260507065022 43 0.0 0.0 0.00 0.79 0.00 98 1006.7
20260507064021 43 0.0 1.0 0.00 0.79 0.00 98 1006.6
20260507063018 43 0.0 0.0 0.00 0.79 0.00 97 1006.8
20260507062018 43 0.0 0.0 0.00 0.79 0.00 98 1006.6
20260507061021 44 0.0 0.0 0.00 0.79 0.00 98 1006.6
20260507060042 44 0.0 0.0 0.00 0.79 0.00 98 1007.3
20260507055022 44 0.0 0.0 0.00 0.79 0.00 97 1007.1
20260507054042 44 0.0 0.0 0.00 0.79 0.00 97 1007.0
20260507053042 44 0.0 0.0 0.00 0.79 0.00 97 1007.1
20260507052017 45 0.0 0.0 0.00 0.79 0.00 97 1007.1
20260507051022 45 0.0 0.0 0.00 0.79 0.00 98 1007.2
20260507050022 45 0.0 0.0 0.00 0.79 0.00 98 1006.8
20260507045021 45 0.0 0.0 0.00 0.79 0.00 98 1006.9
20260507044021 45 0.0 3.0 0.00 0.79 0.00 98 1007.0
20260507043020 45 0.0 0.0 0.00 0.79 0.00 98 1007.0
20260507042022 45 0.0 0.0 0.00 0.80 0.00 98 1006.7
20260507041018 45 0.0 0.0 0.00 0.80 0.00 98 1006.5
20260507040042 45 0.0 0.0 0.00 0.80 0.80 98 1006.5
20260507035021 45 0.0 0.0 0.00 0.80 0.80 98 1006.6
20260507034101 45 0.0 2.0 0.00 0.80 0.80 97 1006.9
20260507033021 45 0.0 0.0 0.01 0.80 0.80 97 1007.0
20260507032021 45 0.0 0.0 0.01 0.80 0.80 97 1007.0
20260507031017 46 0.0 0.0 0.02 0.80 0.80 98 1007.0
20260507030021 46 0.0 0.0 0.02 0.80 0.80 97 1007.0
20260507025021 46 0.0 3.0 0.03 0.80 0.80 98 1007.1
20260507024021 46 0.0 0.0 0.03 0.80 0.80 98 1007.2
20260507023042 46 0.0 0.0 0.03 0.79 0.79 98 1007.5
20260507022021 46 0.0 0.0 0.04 0.79 0.79 98 1007.4
20260507021018 46 0.0 0.0 0.04 0.78 0.78 98 1007.1
20260507020037 46 0.0 0.0 0.04 0.78 0.78 98 1007.0
20260507015021 46 0.0 0.0 0.04 0.77 0.77 98 1007.0
20260507014041 46 0.0 0.0 0.05 0.77 0.77 97 1007.0
20260507013021 46 0.0 0.0 0.05 0.76 0.76 97 1007.0
20260507012021 46 0.0 3.0 0.05 0.75 0.75 97 1007.1
20260507011041 46 0.0 2.0 0.04 0.74 0.74 97 1006.7
20260507010017 46 293 1.0 4.0 0.04 0.74 0.74 97 1006.6
20260507005017 47 293 1.0 3.0 0.03 0.73 0.73 97 1006.4
20260507004021 47 0.0 2.0 0.02 0.72 0.72 97 1006.3
20260507003021 47 293 1.0 4.0 0.01 0.71 0.71 97 1005.9
20260507002022 47 293 1.0 5.0 0.00 0.70 0.70 97 1006.1
20260507001042 48 0.0 3.0 0.00 0.70 0.70 97 1005.8
20260507000023 48 0.0 3.0 0.00 0.70 0.70 97 1005.4
20260506235017 48 0.0 3.0 0.00 0.70 0.70 97 1005.2
20260506234021 49 0.0 2.0 0.00 0.70 0.70 97 1005.1
20260506233021 49 0.0 2.0 0.00 0.70 0.70 97 1004.9
20260506232041 49 0.0 0.0 0.00 0.70 0.70 96 1004.9
20260506231022 50 0.0 1.0 0.00 0.70 0.70 96 1004.9
20260506230021 50 0.0 4.0 0.00 0.70 0.70 96 1004.7
20260506225021 50 0.0 1.0 0.00 0.70 0.70 96 1004.7
20260506224017 51 0.0 1.0 0.01 0.70 0.70 96 1004.7
20260506223021 51 0.0 4.0 0.01 0.70 0.70 96 1004.3
20260506222021 52 0.0 4.0 0.01 0.70 0.70 96 1004.3
20260506221021 53 293 1.0 5.0 0.03 0.70 0.70 95 1004.1
20260506220022 54 293 1.0 6.0 0.05 0.70 0.70 94 1004.1
20260506215021 56 0.0 11.0 0.06 0.70 0.70 94 1004.1
20260506214021 57 0.0 4.0 0.07 0.69 0.69 96 1004.0
20260506213037 58 0.0 2.0 0.10 0.69 0.69 96 1003.8
20260506212021 60 293 2.0 7.0 0.11 0.69 0.69 95 1003.9
20260506211021 60 270 1.0 4.0 0.09 0.69 0.67 97 1003.5
20260506210041 60 180 1.0 4.0 0.07 0.67 0.65 96 1003.4
20260506205022 61 180 1.0 6.0 0.07 0.67 0.64 97 1003.4
20260506204021 61 0.0 1.0 0.05 0.76 0.62 96 1003.5
20260506203021 61 0.0 3.0 0.02 0.73 0.59 96 1003.6
20260506202017 61 0.0 9.0 0.01 0.72 0.58 95 1003.6
20260506201021 61 0.0 5.0 0.01 0.72 0.58 95 1003.7
20260506200021 61 158 1.0 7.0 0.01 0.72 0.58 95 1003.8
20260506195022 61 0.0 4.0 0.01 0.71 0.57 95 1003.9
20260506194101 61 180 2.0 6.0 0.01 0.71 0.57 94 1004.0
20260506193021 61 158 2.0 8.0 0.02 0.71 0.57 94 1004.1
20260506192018 61 180 1.0 5.0 0.05 0.71 0.57 95 1004.1
20260506191023 60 0.0 3.0 0.17 0.71 0.57 96 1004.2
20260506190021 59 203 1.0 4.0 0.30 0.71 0.57 97 1004.4
20260506185041 59 225 1.0 4.0 0.38 0.70 0.56 97 1004.4
20260506184021 59 0.0 3.0 0.41 0.70 0.56 98 1004.5
20260506183019 58 203 1.0 6.0 0.43 0.69 0.55 98 1004.6
20260506182021 58 270 1.0 5.0 0.42 0.66 0.52 97 1004.7
20260506181017 59 338 1.0 5.0 0.31 0.54 0.40 97 1004.7
20260506180021 59 0.0 2.0 0.19 0.41 0.27 96 1004.8
20260506175042 60 270 1.0 4.0 0.10 0.32 0.18 96 1004.9
20260506174021 60 180 1.0 5.0 0.09 0.29 0.15 96 1004.9
20260506173021 60 135 3.0 12.0 0.06 0.26 0.12 95 1005.0
20260506172021 60 135 2.0 9.0 0.05 0.24 0.10 95 1005.1
20260506171021 60 90 2.0 7.0 0.04 0.23 0.09 95 1005.1
20260506170017 60 135 2.0 8.0 0.04 0.22 0.08 95 1005.3
20260506165021 59 0.0 2.0 0.04 0.22 0.08 95 1005.3
20260506164023 59 0.0 4.0 0.02 0.20 0.06 95 1005.7
20260506163021 59 135 3.0 8.0 0.02 0.20 0.06 94 1005.7
20260506162021 59 135 3.0 9.0 0.02 0.19 0.05 95 1005.7
20260506161021 59 113 2.0 8.0 0.02 0.19 0.05 94 1005.8
20260506160021 59 113 3.0 8.0 0.02 0.18 0.04 94 1006.2
20260506155017 59 135 2.0 10.0 0.02 0.18 0.04 94 1006.5
20260506154021 59 113 1.0 5.0 0.03 0.18 0.04 94 1006.6
20260506153021 59 0.0 3.0 0.03 0.18 0.04 94 1006.7
20260506152021 59 0.0 1.0 0.02 0.17 0.03 94 1006.9
20260506151041 59 0.0 0.0 0.02 0.17 0.03 93 1007.0
20260506150022 59 0.0 0.0 0.01 0.16 0.02 93 1007.0
20260506145018 59 0.0 3.0 0.01 0.16 0.02 92 1006.9
20260506144022 59 158 1.0 6.0 0.00 0.15 0.01 90 1006.9
20260506143041 60 203 1.0 4.0 0.00 0.15 0.01 89 1007.1
20260506142041 60 0.0 3.0 0.00 0.15 0.01 88 1006.9
20260506141023 60 0.0 2.0 0.00 0.15 0.01 88 1006.9
20260506140019 60 0.0 4.0 0.00 0.15 0.01 87 1006.9
20260506135041 59 0.0 2.0 0.00 0.15 0.01 88 1006.8
20260506134017 59 113 1.0 5.0 0.00 0.15 0.01 88 1006.7
20260506133021 59 0.0 3.0 0.00 0.15 0.01 89 1007.0
20260506132021 58 0.0 2.0 0.00 0.15 0.01 91 1007.3
20260506131021 58 0.0 3.0 0.00 0.15 0.01 90 1007.5
20260506125021 58 0.0 5.0 0.00 0.15 0.01 88 1006.8
20260506124042 58 135 1.0 6.0 0.00 0.15 0.01 88 1007.4
20260506123017 58 0.0 4.0 0.00 0.15 0.01 90 1007.3
20260506122021 58 135 1.0 7.0 0.00 0.15 0.01 88 1007.3
20260506121041 58 180 3.0 9.0 0.00 0.15 0.01 89 1007.4
20260506120022 57 158 3.0 11.0 0.00 0.15 0.01 90 1007.3
20260506115021 57 180 3.0 10.0 0.00 0.15 0.01 92 1007.2